UR7D-12 Weather Reports


time (UTC)temp
F
wind
direction
speed
knots
gust
knots
rain 1hr
in
rain 24hr
in
rain mn
in
humidity
%
barometer
mb
20260508012954 56 285 3.5 4.3 0.04 0.36 0.14 95 988.9
20260508012454 56 303 3.5 5.2 0.06 0.36 0.14 95 989.0
20260508011954 56 287 2.6 6.1 0.05 0.35 0.13 95 988.9
20260508011453 56 307 1.7 5.2 0.07 0.35 0.13 95 989.0
20260508010953 56 301 1.7 2.6 0.07 0.35 0.13 95 989.0
20260508010453 56 302 1.7 2.6 0.07 0.35 0.13 95 988.9
20260508005953 56 299 2.6 3.5 0.06 0.34 0.12 95 988.9
20260508005452 56 293 2.6 4.3 0.07 0.34 0.12 95 989.0
20260508004952 56 278 2.6 2.6 0.07 0.34 0.12 95 989.0
20260508004452 56 315 2.6 5.2 0.07 0.34 0.12 95 989.0
20260508003951 56 249 0.9 4.3 0.07 0.33 0.11 95 989.0
20260508003451 56 263 0.0 2.6 0.07 0.33 0.11 94 989.0
20260508002951 56 250 0.9 1.7 0.07 0.32 0.10 94 989.0
20260508002451 56 253 1.7 2.6 0.05 0.30 0.08 94 989.1
20260508001950 56 232 2.6 3.5 0.06 0.30 0.08 94 989.1
20260508001450 56 251 2.6 5.2 0.04 0.28 0.06 94 989.1
20260508000950 56 250 3.5 5.2 0.05 0.28 0.06 94 989.1
20260508000450 56 241 3.5 7.0 0.05 0.28 0.06 94 989.1
20260507235949 56 283 3.5 6.1 0.05 0.28 0.06 94 989.2
20260507235449 56 256 3.5 5.2 0.05 0.27 0.05 94 989.2
20260507234949 56 262 2.6 4.3 0.05 0.27 0.05 94 989.1
20260507234448 56 294 1.7 4.3 0.06 0.27 0.05 93 989.2
20260507233949 56 248 0.9 4.3 0.06 0.26 0.04 93 989.2
20260507233448 56 247 0.9 1.7 0.06 0.26 0.04 93 989.2
20260507232948 56 228 2.6 3.5 0.05 0.25 0.03 93 989.2
20260507232447 56 233 2.6 6.1 0.05 0.25 0.03 92 989.2
20260507231947 56 210 1.7 4.3 0.04 0.24 0.02 92 989.2
20260507231447 56 190 0.9 2.6 0.04 0.24 0.02 93 989.3
20260507230946 56 214 0.0 2.6 0.03 0.23 0.01 93 989.3
20260507230446 56 168 0.0 0.0 0.03 0.23 0.01 93 989.4
20260507225946 56 150 0.9 0.9 0.03 0.23 0.01 93 989.3
20260507225445 56 146 0.9 0.9 0.02 0.22 0.22 93 989.4
20260507224945 56 132 0.0 1.7 0.02 0.22 0.22 93 989.3
20260507224445 56 137 0.9 0.9 0.01 0.21 0.21 93 989.4
20260507223945 56 140 0.9 2.6 0.01 0.20 0.20 93 989.2
20260507223444 56 103 0.9 2.6 0.01 0.20 0.20 93 989.3
20260507222944 56 105 0.9 2.6 0.01 0.20 0.20 93 989.4
20260507222444 56 110 0.9 2.6 0.01 0.20 0.20 93 989.3
20260507221943 56 91 1.7 2.6 0.01 0.20 0.20 93 989.2
20260507221443 56 108 3.5 5.2 0.01 0.20 0.20 93 989.2
20260507220443 56 113 2.6 6.1 0.01 0.20 0.20 93 989.3
20260507215942 57 113 1.7 3.5 0.02 0.20 0.20 92 989.2
20260507215442 57 117 0.9 2.6 0.03 0.20 0.20 92 989.3
20260507214942 57 75 0.9 2.6 0.03 0.20 0.20 91 989.2
20260507214442 57 113 1.7 2.6 0.04 0.20 0.20 90 989.3
20260507213941 57 178 1.7 6.1 0.05 0.19 0.19 90 989.3
20260507213441 57 198 0.9 6.1 0.06 0.19 0.19 92 989.4
20260507212941 57 166 0.9 3.5 0.06 0.19 0.19 92 989.3
20260507212441 57 120 0.9 2.6 0.06 0.19 0.19 92 989.3
20260507211940 57 155 0.9 2.6 0.07 0.19 0.19 92 989.4
20260507211440 57 159 0.9 3.5 0.07 0.19 0.19 92 989.4
20260507210939 57 158 1.7 3.5 0.07 0.19 0.19 92 989.4
20260507210439 57 162 2.6 4.3 0.07 0.19 0.19 92 989.3
20260507205939 57 100 1.7 5.2 0.06 0.18 0.18 92 989.4
20260507205439 57 118 0.9 2.6 0.05 0.17 0.17 92 989.3
20260507204938 58 111 0.9 2.6 0.05 0.17 0.17 91 989.3
20260507204438 58 119 0.9 1.7 0.04 0.16 0.16 91 989.4
20260507203938 58 149 0.9 1.7 0.02 0.14 0.14 91 989.4
20260507203438 58 148 0.9 2.6 0.01 0.13 0.13 90 989.3
20260507202937 58 133 1.7 2.6 0.01 0.13 0.13 90 989.4
20260507202437 58 139 1.7 2.6 0.01 0.13 0.13 90 989.4
20260507201937 58 110 1.7 2.6 0.00 0.12 0.12 90 989.4
20260507201438 58 127 1.7 2.6 0.00 0.12 0.12 91 989.3
20260507200936 58 134 1.7 2.6 0.00 0.12 0.12 91 989.3
20260507200436 58 132 0.9 2.6 0.00 0.12 0.12 91 989.4
20260507195936 58 128 1.7 3.5 0.00 0.12 0.12 91 989.3
20260507195435 58 119 1.7 2.6 0.00 0.12 0.12 91 989.2
20260507194935 58 115 1.7 2.6 0.00 0.12 0.12 91 989.3
20260507194435 58 123 1.7 2.6 0.00 0.12 0.12 92 989.3
20260507193434 57 101 1.7 2.6 0.00 0.12 0.12 93 989.2
20260507192434 58 89 1.7 2.6 0.00 0.12 0.12 92 989.1
20260507191933 58 89 0.9 2.6 0.00 0.12 0.12 92 989.1
20260507191433 58 134 0.0 0.9 0.00 0.12 0.12 91 989.0
20260507190933 58 135 0.0 0.0 0.00 0.12 0.12 90 989.0
20260507190432 58 135 0.0 1.7 0.00 0.12 0.12 89 989.0
20260507185932 59 117 0.0 0.9 0.00 0.12 0.12 88 988.9
20260507185432 59 226 0.0 0.0 0.00 0.12 0.12 88 988.9
20260507184932 59 226 0.0 0.9 0.00 0.12 0.12 88 988.8
20260507184435 59 104 0.0 0.9 0.00 0.12 0.12 88 988.8
20260507183431 59 124 0.0 0.9 0.00 0.12 0.12 91 988.9
20260507182930 58 153 0.0 1.7 0.00 0.12 0.12 91 988.7
20260507182430 58 141 0.0 0.9 0.00 0.12 0.12 91 988.7
20260507181930 58 139 0.0 0.9 0.00 0.12 0.12 91 988.7
20260507181430 58 144 0.9 2.6 0.00 0.12 0.12 91 988.6
20260507180929 58 111 2.6 2.6 0.00 0.12 0.12 91 988.4
20260507175929 59 123 3.5 4.3 0.00 0.12 0.12 90 988.3
20260507175428 58 122 2.6 4.3 0.00 0.12 0.12 89 988.3
20260507174928 58 119 1.7 2.6 0.00 0.12 0.12 90 988.3
20260507174428 59 127 1.7 3.5 0.00 0.12 0.12 90 988.3
20260507173928 59 140 0.9 2.6 0.00 0.12 0.12 92 988.2
20260507173427 59 131 0.0 0.0 0.00 0.12 0.12 92 988.3
20260507172927 59 120 0.0 0.0 0.00 0.12 0.12 92 988.3
20260507172427 59 131 0.0 0.0 0.00 0.12 0.12 92 988.3
20260507171926 59 136 0.0 0.9 0.00 0.12 0.12 92 988.3
20260507171426 60 143 0.0 0.9 0.00 0.12 0.12 92 988.3
20260507170926 60 148 0.0 0.9 0.00 0.12 0.12 92 988.3
20260507170426 60 143 0.0 0.9 0.00 0.12 0.12 92 988.3
20260507165925 60 140 0.9 1.7 0.00 0.12 0.12 92 988.3
20260507165425 60 129 0.9 1.7 0.00 0.12 0.12 92 988.3
20260507164925 60 124 0.9 1.7 0.00 0.12 0.12 92 988.3
20260507164424 60 134 0.9 1.7 0.00 0.12 0.12 92 988.4
20260507163924 60 141 0.9 1.7 0.00 0.12 0.12 91 988.4
20260507163424 60 131 0.9 1.7 0.00 0.12 0.12 90 988.4
20260507162924 60 127 0.9 0.9 0.00 0.12 0.12 89 988.5
20260507162423 60 122 0.0 0.9 0.01 0.12 0.12 89 988.5
20260507161923 60 122 0.0 0.9 0.01 0.12 0.12 89 988.5
20260507161423 60 128 0.0 0.0 0.01 0.12 0.12 88 988.5
20260507160923 60 123 0.0 0.0 0.02 0.12 0.12 89 988.5
20260507160422 60 123 0.0 0.0 0.03 0.12 0.12 89 988.5
20260507155925 60 123 0.0 0.0 0.03 0.12 0.12 90 988.5
20260507155422 60 123 0.0 0.9 0.03 0.12 0.12 90 988.6
20260507154921 60 124 0.0 0.9 0.03 0.12 0.12 90 988.6
20260507154421 60 134 0.0 0.0 0.03 0.12 0.12 90 988.6
20260507153921 60 165 0.0 0.9 0.03 0.12 0.12 90 988.7
20260507153421 61 161 0.0 0.9 0.03 0.12 0.12 90 988.7
20260507152920 61 206 0.0 1.7 0.03 0.12 0.12 90 988.7
20260507152420 61 213 0.0 0.9 0.03 0.11 0.11 90 988.7
20260507151920 61 226 0.9 1.7 0.03 0.11 0.11 90 988.8
20260507151419 61 225 0.9 1.7 0.03 0.11 0.11 90 988.8
20260507150919 61 234 1.7 3.5 0.03 0.10 0.10 90 988.8
20260507150419 61 212 0.9 3.5 0.02 0.09 0.09 90 988.9
20260507145919 61 209 0.9 2.6 0.02 0.09 0.09 90 988.8
20260507145418 61 221 0.9 2.6 0.02 0.09 0.09 90 988.9
20260507144918 61 196 0.9 2.6 0.02 0.09 0.09 90 988.8
20260507144418 61 188 0.9 2.6 0.03 0.09 0.09 89 988.8
20260507143917 61 203 1.7 3.5 0.03 0.09 0.09 89 988.8
20260507143417 61 190 1.7 3.5 0.04 0.09 0.09 89 988.9
20260507142917 61 218 0.9 3.5 0.04 0.09 0.09 88 988.9
20260507142417 61 212 0.9 1.7 0.03 0.08 0.08 89 988.9
20260507141416 61 180 0.9 1.7 0.04 0.08 0.08 88 989.0
20260507140916 62 215 0.9 2.6 0.03 0.07 0.07 88 989.1
20260507140415 61 222 0.9 2.6 0.03 0.07 0.07 87 989.0
20260507135915 62 210 1.7 3.5 0.03 0.07 0.07 87 989.1
20260507135415 62 231 1.7 3.5 0.04 0.07 0.07 86 989.2
20260507134915 62 262 1.7 1.7 0.05 0.07 0.07 87 989.2
20260507134414 62 208 1.7 2.6 0.04 0.06 0.06 86 989.2
20260507133914 62 221 1.7 5.2 0.04 0.06 0.06 85 989.2
20260507133414 62 215 1.7 4.3 0.03 0.05 0.05 85 989.2
20260507132913 62 243 1.7 5.2 0.03 0.05 0.05 84 989.2
20260507132413 62 232 1.7 2.6 0.03 0.05 0.05 84 989.2
20260507131913 62 226 1.7 5.2 0.02 0.04 0.04 83 989.2
20260507131413 62 230 2.6 4.3 0.02 0.04 0.04 82 989.2
20260507130912 62 250 3.5 5.2 0.02 0.04 0.04 81 989.1
20260507130412 63 238 3.5 7.0 0.02 0.04 0.04 80 989.2
20260507125912 63 247 3.5 7.0 0.02 0.04 0.04 80 989.2
20260507125411 63 206 3.5 6.1 0.01 0.03 0.03 78 989.1
20260507124911 64 232 3.5 6.1 0.00 0.02 0.02 77 989.0
20260507124411 64 201 2.6 5.2 0.00 0.02 0.02 78 989.0
20260507123911 64 216 2.6 6.1 0.00 0.02 0.02 78 989.0
20260507123410 64 228 2.6 5.2 0.02 0.02 0.02 79 988.9
20260507122910 64 158 2.6 7.0 0.02 0.02 0.02 77 988.9
20260507122410 64 214 1.7 4.3 0.02 0.02 0.02 77 988.9
20260507121909 63 217 1.7 3.5 0.02 0.02 0.02 79 988.9
20260507121409 63 221 2.6 5.2 0.02 0.02 0.02 78 988.8
20260507120909 63 229 2.6 7.0 0.02 0.02 0.02 79 988.8
20260507120409 62 203 3.5 5.2 0.02 0.02 0.02 78 988.7
20260507115908 62 173 3.5 6.1 0.02 0.02 0.02 80 988.8
20260507115408 62 156 2.6 6.1 0.02 0.02 0.02 79 988.9
20260507114908 63 179 2.6 7.0 0.02 0.02 0.02 78 989.0
20260507114407 63 113 4.3 5.2 0.02 0.02 0.02 78 988.9
20260507113907 64 186 6.1 7.8 0.02 0.02 0.02 75 989.0
20260507113407 66 217 7.0 13.0 0.00 0.00 0.00 69 988.8
20260507112907 67 153 6.1 12.2 0.00 0.00 0.00 65 988.5
20260507112406 67 137 6.1 10.4 0.00 0.00 0.00 64 988.5
20260507111906 67 207 4.3 10.4 0.00 0.00 0.00 64 988.4
20260507111406 67 100 4.3 7.8 0.00 0.00 0.00 64 988.5
20260507110906 68 163 3.5 7.8 0.00 0.00 0.00 64 988.5
20260507110405 68 195 3.5 7.0 0.00 0.00 0.00 64 988.5
20260507105905 68 167 3.5 7.8 0.00 0.00 0.00 64 988.4
20260507105405 68 163 2.6 6.1 0.00 0.00 0.00 64 988.4
20260507104904 68 116 3.5 6.1 0.00 0.00 0.00 64 988.5
20260507103405 68 122 4.3 9.6 0.00 0.00 0.00 62 988.5
20260507102903 67 154 3.5 7.0 0.00 0.00 0.00 63 988.6
20260507102403 67 154 3.5 7.8 0.00 0.00 0.00 63 988.5
20260507101903 67 237 4.3 7.8 0.00 0.00 0.00 62 988.6
20260507101404 67 156 4.3 8.7 0.00 0.00 0.00 62 988.6
20260507100902 68 172 5.2 8.7 0.00 0.00 0.00 61 988.6
20260507100402 68 143 6.1 11.3 0.00 0.00 0.00 62 988.6
20260507095902 68 211 5.2 9.6 0.00 0.00 0.00 60 988.6
20260507095403 68 237 4.3 9.6 0.00 0.00 0.00 61 988.7
20260507094402 69 163 4.3 7.8 0.00 0.00 0.00 60 988.6
20260507093900 69 152 5.2 13.0 0.00 0.00 0.00 59 988.6
20260507093402 69 221 5.2 13.0 0.00 0.00 0.00 59 988.6
20260507092901 69 199 6.1 11.3 0.00 0.00 0.00 58 988.6
20260507092400 69 180 6.1 11.3 0.00 0.00 0.00 58 988.5
20260507091400 70 144 5.2 8.7 0.00 0.00 0.00 58 988.3
20260507090902 70 181 5.2 9.6 0.00 0.00 0.00 59 988.3
20260507085900 69 107 5.2 10.4 0.00 0.00 0.00 58 988.2
20260507085358 69 131 5.2 10.4 0.00 0.00 0.00 57 988.1
20260507084858 69 146 7.0 12.2 0.00 0.00 0.00 58 988.2
20260507084357 69 117 7.8 12.2 0.00 0.00 0.00 58 988.1
20260507083900 69 141 7.0 13.9 0.00 0.00 0.00 57 988.1
20260507082858 69 147 3.5 11.3 0.00 0.00 0.00 58 987.8
20260507082356 68 141 3.5 11.3 0.00 0.00 0.00 61 987.8
20260507081857 67 122 1.7 6.1 0.00 0.00 0.00 63 987.8
20260507081359 67 211 0.0 0.9 0.00 0.00 0.00 66 987.8
20260507080357 65 53 0.0 0.9 0.00 0.00 0.00 69 987.8
20260507074856 64 73 1.7 2.6 0.00 0.00 0.00 68 987.7
20260507074354 63 106 1.7 1.7 0.00 0.00 0.00 68 987.7
20260507073855 63 92 2.6 4.3 0.00 0.00 0.00 68 987.6
20260507073355 64 86 3.5 5.2 0.00 0.00 0.00 68 987.7
20260507072853 64 84 4.3 6.1 0.00 0.00 0.00 68 987.7
20260507072353 64 103 4.3 7.0 0.00 0.00 0.00 67 987.7
20260507071852 64 86 4.3 6.1 0.00 0.00 0.00 66 987.7
20260507071352 64 101 5.2 6.1 0.00 0.00 0.00 67 987.6
20260507070852 64 98 5.2 7.0 0.00 0.00 0.00 66 987.6
20260507070352 65 106 5.2 7.0 0.00 0.00 0.00 67 987.5
20260507065851 65 75 5.2 7.8 0.00 0.00 0.00 66 987.4
20260507065352 64 83 5.2 7.0 0.00 0.00 0.00 66 987.4
20260507064851 64 95 5.2 7.8 0.00 0.00 0.00 67 987.4
20260507064350 64 89 5.2 7.8 0.00 0.00 0.00 68 987.4
20260507063850 64 105 6.1 7.8 0.00 0.00 0.00 67 987.4
20260507063350 64 110 6.1 9.6 0.00 0.00 0.00 67 987.3
20260507062850 64 96 5.2 8.7 0.00 0.00 0.00 66 987.2
20260507062349 63 119 5.2 8.7 0.00 0.00 0.00 68 987.3
20260507061849 63 105 6.1 7.8 0.00 0.00 0.00 68 987.2
20260507061349 62 93 7.8 11.3 0.00 0.00 0.00 68 987.2
20260507060848 62 118 6.1 13.0 0.00 0.00 0.00 70 987.3
20260507060348 61 127 5.2 9.6 0.00 0.00 0.00 70 987.4
20260507055848 61 103 7.0 11.3 0.00 0.00 0.00 71 987.3
20260507055348 61 115 7.0 11.3 0.00 0.00 0.00 70 987.1
20260507054847 60 107 6.1 11.3 0.00 0.00 0.00 71 987.1
20260507054347 61 93 5.2 9.6 0.00 0.00 0.00 71 986.9
20260507053847 61 129 6.1 9.6 0.00 0.00 0.00 71 987.0
20260507053347 60 94 7.0 11.3 0.00 0.00 0.00 72 987.0
20260507052846 60 108 6.1 11.3 0.00 0.00 0.00 73 987.0
20260507052346 59 109 6.1 10.4 0.00 0.00 0.00 73 986.9
20260507051846 58 94 7.8 7.8 0.00 0.00 0.00 75 986.9
20260507051345 58 92 8.7 12.2 0.00 0.00 0.00 75 986.8
20260507050845 59 113 7.8 11.3 0.00 0.00 0.00 73 986.9
20260507050345 59 92 7.0 11.3 0.00 0.00 0.00 72 986.8
20260507045845 59 110 6.1 9.6 0.00 0.00 0.00 72 986.9
20260507045344 59 108 6.1 7.8 0.00 0.00 0.00 74 986.9
20260507044844 59 86 5.2 7.8 0.00 0.00 0.00 73 987.0
20260507044344 59 102 3.5 6.1 0.00 0.00 0.00 74 987.1
20260507043843 58 91 2.6 5.2 0.00 0.00 0.00 74 987.1
20260507043343 58 99 2.6 5.2 0.00 0.00 0.00 74 987.3
20260507042843 58 97 2.6 4.3 0.00 0.00 0.00 74 987.3
20260507042343 58 146 4.3 6.1 0.00 0.00 0.00 74 987.2
20260507041842 57 113 5.2 7.8 0.00 0.00 0.00 74 987.0
20260507041342 57 97 7.0 8.7 0.00 0.00 0.00 75 987.0
20260507040842 57 91 7.0 10.4 0.00 0.00 0.00 76 986.8
20260507040341 57 98 4.3 9.6 0.00 0.00 0.00 75 986.7
20260507035841 57 92 1.7 10.4 0.00 0.00 0.00 74 986.8
20260507035341 57 101 0.9 2.6 0.00 0.00 0.00 74 986.8
20260507034841 57 104 2.6 5.2 0.00 0.00 0.00 74 986.8
20260507034340 57 110 3.5 7.8 0.00 0.00 0.00 74 986.9
20260507033840 57 122 3.5 5.2 0.00 0.00 0.00 74 986.8
20260507033340 57 80 2.6 5.2 0.00 0.00 0.00 74 986.6
20260507032839 57 151 3.5 4.3 0.00 0.00 0.00 74 986.8
20260507032339 57 122 4.3 6.1 0.00 0.00 0.00 74 986.6
20260507031839 57 85 6.1 7.8 0.00 0.00 0.00 74 986.5
20260507031339 57 77 7.0 10.4 0.00 0.00 0.00 74 986.4
20260507030838 58 84 7.8 13.9 0.00 0.00 0.00 73 986.4
20260507030338 57 80 7.0 9.6 0.00 0.00 0.00 73 986.4
20260507025838 57 85 7.0 9.6 0.00 0.00 0.00 73 986.4
20260507025337 57 86 7.8 9.6 0.00 0.00 0.00 73 986.3
20260507024837 57 80 7.8 10.4 0.00 0.00 0.00 73 986.3
20260507024337 58 96 7.8 10.4 0.00 0.00 0.00 73 986.3
20260507023837 58 74 6.1 10.4 0.00 0.00 0.00 73 986.3
20260507023336 58 89 5.2 8.7 0.00 0.00 0.00 73 986.3
20260507022836 58 93 5.2 9.6 0.00 0.00 0.00 73 986.3
20260507022336 58 75 5.2 8.7 0.00 0.00 0.00 72 986.4
20260507021835 58 105 6.1 7.8 0.00 0.00 0.00 72 986.3
20260507021335 58 102 6.1 8.7 0.00 0.00 0.00 72 986.3
20260507020835 58 98 5.2 8.7 0.00 0.00 0.00 72 986.3
20260507020335 59 93 5.2 9.6 0.00 0.00 0.00 71 986.2
20260507015834 59 105 5.2 7.0 0.00 0.00 0.00 70 986.1
20260507015334 59 99 5.2 7.0 0.00 0.00 0.00 70 986.2
20260507014834 59 89 6.1 7.8 0.00 0.00 0.00 70 986.1
20260507014333 60 88 6.1 7.8 0.00 0.00 0.00 69 986.1
20260507013833 60 98 6.1 7.8 0.00 0.00 0.00 69 986.1
20260507013333 60 98 7.0 7.8 0.00 0.00 0.00 69 986.1